Change the Weather History Date:

Tuesday, October 22, 2013

  Actual Average Record
Temperature  
Mean Temperature 38 °F -  
Max Temperature 48 °F 22 °F 55 °F (2008)
Min Temperature 26 °F 7 °F 1 °F (1996)
Degree Days  
Heating Degree Days 27    
Moisture  
Dew Point 31 °F    
Average Humidity 73    
Maximum Humidity 93    
Minimum Humidity 41    
Precipitation  
Precipitation 0.00 in 0.03 in - ()
Sea Level Pressure  
Sea Level Pressure 30.24 in    
Wind  
Wind Speed 3 mph ()    
Max Wind Speed 6 mph    
Max Gust Speed -    
Visibility 15.3 miles    
Events Fog    
Averages and records for this station are not official NWS values.
T = Trace of Precipitation, MM = Missing Value Source: Averaged Metar Reports

Daily Weather History Graph

Daily Weather History Graph

Search for Another Location

Airport or City:

Trip Planner

Search our weather history database for the weather conditions in past years. The results will help you decide how hot, cold, wet, or windy it might be!

Date:

Astronomy

Oct. 22, 2013 Rise Set
Actual Time 8:04 AM PDT 5:43 PM PDT
Civil Twilight 7:22 AM PDT 6:25 PM PDT
Nautical Twilight 6:36 AM PDT 7:12 PM PDT
Astronomical Twilight 5:49 AM PDT 7:58 PM PDT
Moon 7:49 PM PDT (10/22) 12:17 PM PDT (10/22)
Length of Visible Light 11h 02m
Length of Day
9h 39m
Waning Gibbous, 86% of the Moon is Illuminated
Oct 22
Waning Gibbous
Oct 26
Last Quarter
Nov 3
New
Nov 9
First Quarter
Nov 17
Full

Hourly Weather History & Observations

Time (PDT) Temp. Windchill Dew Point Humidity Pressure Visibility Wind Dir Wind Speed Gust Speed Precip Events Conditions
12:00 AM 44.6 °F 41.4 °F 39.2 °F 81% 30.11 in 15.0 mi SW 5.8 mph - N/A   Overcast
1:00 AM 42.8 °F 39.3 °F 39.2 °F 87% 30.12 in 15.0 mi SW 5.8 mph - N/A   Mostly Cloudy
2:00 AM 42.8 °F 39.3 °F 35.6 °F 76% 30.13 in 15.0 mi SW 5.8 mph - N/A   Mostly Cloudy
3:00 AM 39.2 °F 35.0 °F 35.6 °F 87% 30.15 in 15.0 mi NW 5.8 mph - N/A   Scattered Clouds
4:00 AM 37.4 °F 32.8 °F 33.8 °F 87% 30.17 in 15.0 mi West 5.8 mph - N/A   Partly Cloudy
5:00 AM 42 °F - 28 °F 45% 30.18 in 15 mi West 5.8 mph - -   Partly Cloudy
5:00 AM 41.0 °F 37.1 °F 28.4 °F 61% 30.18 in 15.0 mi West 5.8 mph - N/A   Scattered Clouds
6:00 AM 37.4 °F - 26.6 °F 65% 30.20 in 15.0 mi Calm Calm - N/A   Partly Cloudy
7:00 AM 35.6 °F 30.7 °F 26.6 °F 70% 30.22 in 15.0 mi West 5.8 mph - N/A Fog Patches of Fog
8:00 AM 32.0 °F - 30.2 °F 93% 30.24 in 20.0 mi Calm Calm - N/A   Scattered Clouds
9:00 AM 32.0 °F - 28.4 °F 87% 30.24 in 30.0 mi Calm Calm - N/A   Mostly Cloudy
10:00 AM 35.6 °F - 32.0 °F 87% 30.26 in 30.0 mi Calm Calm - N/A   Mostly Cloudy
11:00 AM 38 °F - 33 °F 74% 30.27 in 28 mi Calm Calm - -   Scattered Clouds
11:00 AM 39.2 °F - 32.0 °F 75% 30.27 in 30.0 mi Calm Calm - N/A   Scattered Clouds
12:00 PM 41.0 °F 37.1 °F 32.0 °F 70% 30.26 in 30.0 mi NE 5.8 mph - N/A   Scattered Clouds
1:00 PM 44.6 °F - 30.2 °F 57% 30.26 in 30.0 mi Calm Calm - N/A   Partly Cloudy
2:00 PM 46.4 °F - 30.2 °F 53% 30.26 in 30.0 mi NE 2.3 mph - N/A   Scattered Clouds
3:00 PM 46.4 °F - 30.2 °F 53% 30.26 in 30.0 mi Calm Calm - N/A   Mostly Cloudy
4:00 PM 48.2 °F - 32.0 °F 54% 30.26 in 30.0 mi Calm Calm - N/A   Scattered Clouds
5:00 PM 46 °F - 30 °F 41% 30.26 in 28 mi Calm Calm - -   Scattered Clouds
5:00 PM 46.4 °F - 30.2 °F 53% 30.26 in 30.0 mi Calm Calm - N/A   Partly Cloudy
6:00 PM 39.2 °F - 30.2 °F 70% 30.27 in 30.0 mi Calm Calm - N/A   Partly Cloudy
7:00 PM 33.8 °F - 28.4 °F 81% 30.28 in 15.0 mi Calm Calm - N/A   Partly Cloudy
8:00 PM 30.2 °F - 26.6 °F 86% 30.30 in 15.0 mi Calm Calm - N/A   Clear
9:00 PM 28.4 °F - 26.6 °F 93% 30.31 in 15.0 mi Calm Calm - N/A   Clear
10:00 PM 28.4 °F - 26.6 °F 93% 30.32 in 15.0 mi Calm Calm - N/A   Partly Cloudy
11:00 PM 26.6 °F - 24.8 °F 93% 30.33 in 15.0 mi Calm Calm - N/A   Clear